Погода в Гамильтоне

Бермудские Острова     32°17′38″N   64°47′08″W
темп.,
°C
ветер,
м/с
пор.,
м/с
влажн.,
%
обл.,
%
осадки,
мм/ч
давл.,
гПа
погр.,
м
14 мая, пт
пт1400:00+20св4689100 8.9 1018493
03:00+19в4490100 14.1 1017306
06:00+19св1189100 2.2 1017217
09:00+19ссз1187100 3.3 1018256
12:00+21ссз7780100 0.1 1018679
15:00+21с5580100 0.1 1017585
18:00+20св121182100 0.1 1017891
21:00+20св131382100 0.4 1019930
15 мая, сб
сб1500:00+20всв111179100 0.3 1020944
03:00+20всв91078100 0.6 1019978
06:00+20св111175100 0.3 10191047
09:00+20всв111172100 0.3 10211110
12:00+20всв10106957 0.0 10211093
15:00+20всв101068100 0.0 10201187
18:00+20всв101169100 0.0 10191235
21:00+20всв101070100 0.1 10201217
16 мая, вс
вс1600:00+20всв9971100 0.0 10201047
03:00+20всв9871100 0.1 10191046
06:00+19всв7778100 1.1 1019682
09:00+20всв887490 2.9 1021856
12:00+20св11117476 0.1 10201070
15:00+20св101071100 0.1 10201184
18:00+20св9970100 0.1 10201165
21:00+20св9964100 0.2 10221211
17 мая, пн
пн1700:00+20всв88603 0.0 10221409
03:00+20св666513 0.1 10211207
06:00+20всв66665 0.1 10211132
09:00+20св66655 0.2 10231139
12:00+20св77695 0.2 1024982
15:00+20всв776991 0.4 1023903
18:00+20всв666343 0.0 10231206
21:00+20всв77615 0.0 10241318
18 мая, вт
вт1800:00+20всв76625 0.0 10251354
03:00+20всв6661100 0.0 10241225
06:00+20св6663100 0.0 10241207
09:00+19всв667096 0.1 1026961
12:00+20всв6667100 0.2 10271088
15:00+20всв666391 0.3 10261205
18:00+20св666133 0.0 10261240
21:00+20св7762100 0.0 10271253